www.pogodaiklimat.ru

Погода и климат >> Архив погоды >> Россия >> Якутия >> Юрты


ПОГОДА в Юртах

  • Прогноз погоды в Юртах
  • Монитор погоды в Юртах

АРХИВ ПОГОДЫ в Юртах

Время (UTC), дата Ветер
(напр.,м/с)
 
Видим.   Явления Облачность Т
(С)
Тd
(С)
f
(%)
Тe
(С)
Тes
(С)
Комфортность P
(гПа)
Po
(гПа)
Тmin
(С)
Tmax
(С)
R
(мм)
R24
(мм)
S
(см)
09 18.06 штиль 0 50 км 10/10 1000 м
[Sc]
+17.7 +5.4 44 +18 +18 1008.4 941.5 +20.0
12 18.06 штиль 0 50 км 10/10 1000 м
[Sc]
+15.3 +8.4 63 +15 +15 1009.7 942.2
15 18.06 штиль 0 50 км 10/10 1000 м
[Sc]
+10.3 +6.2 76 +10 +10 1011.7 942.9
18 18.06 штиль 0 50 км 8/8 1000 м
[Sc]
+10.0 +7.9 87 +9 +9 1012.5 943.7
21 18.06 штиль 0 50 км 10/10 1000 м
[Sc]
+11.3 +7.1 75 +11 +11 1012.4 943.8 +9.2
00 19.06 Ю 2 50 км 8/8 1000 м
[Cu Sc]
+13.9 +3.7 50 +14 +16 1011.6 943.6
03 19.06 С 3 50 км 10/10 1000 м
[Sc]
+18.5 +6.7 46 +19 +19 1010.4 943.5
06 19.06 С 2 50 км 10/10 1000 м
[Sc]
+18.4 +6.1 44 +19 +19 1009.8 943.0
09 19.06 штиль 0 50 км 10/10 1000 м
[Sc]
+19.4 +7.5 46 +20 +20 1009.2 942.6 +20.0
12 19.06 ЮЗ 1 50 км 8/8 1000 м
[Sc]
+18.0 +7.1 49 +19 +19 1009.7 942.7
15 19.06 штиль 0 50 км 10/10 1000 м
[Sc]
+15.2 +11.1 77 +15 +15 1009.9 942.5
18 19.06 штиль 0 50 км 10/10 1000 м
[Sc]
+13.0 +10.5 85 +13 +13 1011.0 943.0
21 19.06 ЮВ 1 20 км слаб. дождь 10/10 300 м
[Frnb Ns]
+10.8 +10.0 95 +10 +10 1011.6 943.0 +10.0 7
00 20.06 штиль 0 50 км {дождь} 10/8 1000 м
[Sc Ac As]
+13.3 +11.4 88 +13 +14 1010.7 942.8
03 20.06 штиль 0 50 км 10/10 1000 м
[Sc]
+16.4 +11.8 74 +16 +16 1008.8 941.7
06 20.06 Ю 2 20 км слаб. ливневой дождь 9/9 600 м
[Cb cap]
+17.2 +9.4 60 +18 +18 1008.0 941.1
09 20.06 штиль 0 20 км слаб. ливневой дождь 10/8 600 м
[Cb cap Ci fib]
+14.6 +12.0 84 +14 +15 1008.6 941.2 +19.2 1
12 20.06 Ю 2 50 км {ливн. осадки} 10/10 600 м
[Cb cap]
+13.4 +11.5 88 +13 +13 1009.7 941.9
15 20.06 штиль 0 20 км слаб. дождь 10/8 1000 м
[Sc As op]
+10.2 +9.6 96 +9 +9 1010.1 942.3
18 20.06 штиль 0 50 км {дождь} 10/10 1000 м
[Sc]
+10.0 +9.6 97 +9 +9 1011.6 942.8
21 20.06 штиль 0 50 км 10/10 1000 м
[Sc]
+11.4 +10.6 95 +11 +11 1010.7 942.4 +10.0 1
00 21.06 штиль 0 50 км 10/10 1000 м
[Sc]
+12.8 +9.7 81 +12 +12 1012.1 943.9
03 21.06 штиль 0 50 км 10/8 1000 м
[Cb cap Ci fib]
+17.8 +12.2 70 +18 +21 1010.1 943.2
06 21.06 штиль 0 20 км слаб. ливневой дождь {гроза} 9/9 600 м
[Cb cap]
+15.6 +13.1 85 +15 +16 1010.5 943.2
09 21.06 штиль 0 50 км {ливн. осадки} 10/4 600 м
[Sc Ci fib]
+18.8 +12.6 67 +20 +21 1009.3 942.7 +20.2 6
12 21.06 Ю 6
{11}
50 км {ливн. осадки, гроза} 10/6 600 м
[Sc Ci fib]
+15.0 +10.2 73 +13 +13 1011.7 944.1
15 21.06 Ю 2 50 км 10/10 1000 м
[Sc]
+13.9 +11.9 88 +13 +13 1012.3 944.4
18 21.06 штиль 0 50 км 8/8 1000 м
[Sc]
+8.4 +8.0 97 +7 +8 1013.9 944.5
21 21.06 штиль 0 50 км 10/4 1000 м
[Sc Ci fib]
+10.5 +6.9 78 +10 +12 1013.7 944.8 +8.4
00 22.06 СЗ 4 50 км 10/10 600 м
[Cb cap]
+16.2 +11.6 74 +15 +15 1012.4 945.1
03 22.06 Ю 2 50 км {ливн. осадки} 10/8 600 м
[Cb cap Ci fib]
+15.8 +12.3 80 +16 +18 1011.8 944.4
06 22.06 СЗ 2 50 км {ливн. осадки} 10/4 600 м
[Cb cap Ci fib]
+18.7 +8.7 52 +20 +24 1010.8 944.0
09 22.06 С 2 20 км слаб. ливневой дождь 8/8 600 м
[Cb cap]
+18.0 +14.0 77 +19 +19 1010.4 943.6 +20.1 1
12 22.06 штиль 0 50 км {ливн. осадки} 4/4 600 м
[Cb cap]
+12.8 +10.9 88 +12 +12 1012.2 944.1
15 22.06 В 1 50 км 3/3 1000 м
[Sc]
+7.0 +7.0 100 +6 +6 1013.8 944.1
18 22.06 Ю 1 50 км 3/3 1000 м
[Sc]
+7.5 +5.7 88 +7 +7 1013.9 944.3
21 22.06 Ю 2 50 км ясно +10.6 +7.7 82 +9 +13 1012.7 944.0 +3.8 0.3
00 23.06 ЮВ 4 50 км 6/3 1000 м
[Cu hum Ac trans]
+16.7 +9.9 64 +16 +20 1010.5 943.3
03 23.06 СЗ 1 50 км 4/4 600 м
[Sc]
+21.3 +10.8 51 +23 +32 комфорт 1007.5 941.5
06 23.06 СЗ 2 50 км 8/8 600 м
[Cb cap]
+21.9 +9.5 45 +23 +25 комфорт 1005.7 940.0
09 23.06 Ю 4 50 км {гроза, ливн. осадки} 10/8 600 м
[Cb cap Ci ing]
+15.8 +9.9 68 +15 +15 1008.6 941.3 +22.1 8
12 23.06 ЮВ 3 50 км {гроза, ливн. осадки} 4/3 1000 м
[Sc Ci fib]
+11.6 +10.4 92 +10 +10 1010.1 941.5
15 23.06 штиль 0 50 км ясно +5.2 +4.7 97 +4 +4 1011.9 941.8
18 23.06 штиль 0 50 км 6/6 1000 м
[Sc]
+6.8 +6.4 97 +6 +6 1012.0 942.4
21 23.06 штиль 0 50 км 10/8 1000 м
[Sc Ci fib]
+10.4 +7.3 81 +10 +11 1012.4 943.6 +3.6
00 24.06 штиль 0 50 км 10/8 1000 м
[Sc Ci fib]
+13.8 +10.2 79 +13 +16 1010.7 942.8
03 24.06 штиль 0 20 км слаб. ливневой дождь 10/10 600 м
[Cb cap]
+14.5 +11.9 84 +14 +14 1010.2 942.5
06 24.06 Ю 5 50 км {ливн. осадки} 8/8 600 м
[Sc]
+17.9 +9.1 56 +18 +18 1008.6 941.8
09 24.06 Ю 4 50 км 8/5 1000 м
[Sc Ci fib]
+18.9 +8.0 49 +19 +20 1007.4 940.9 +19.1 0.6
12 24.06 Ю 5
{10}
50 км 4/4 1000 м
[Sc]
+16.4 +7.7 56 +16 +16 1010.2 942.9
15 24.06 штиль 0 50 км 8/3 1000 м
[Sc Ci fib]
+9.2 +7.5 89 +8 +8 1013.2 944.1
18 24.06 штиль 0 50 км ясно +9.2 +7.5 89 +8 +9 1013.2 944.1
21 24.06 Ю 4 50 км ясно +10.8 +7.7 81 +8 +11 1014.7 945.8 +8.9
00 25.06 Ю 5
{10}
50 км н/о +14.8 +5.6 54 +13 +17 1013.7 945.8
03 25.06 Ю 3 50 км 9/9 1000 м
[Sc]
+16.8 +7.2 53 +17 +18 1012.3 945.0
06 25.06 Ю 5
{10}
50 км 9/9 1000 м
[Sc]
+18.2 +5.0 42 +18 +18 1011.7 944.7

 

Местоположение метеостанции Юрты (Якутия, Россия): широта 64.05 долгота 141.80 высота над уровнем моря 590 м.

В архиве по умолчанию представлена погода в Юртах за последнюю неделю. Архивные данные за месяц целиком и за предыдущие месяцы, начиная с января 2011 года, Вы можете получить, выбрав интересующий диапазон дат из раскрывающегося списка и нажав кнопку "Ввод!".


*Определитесь, кто Вы:
робот инопланетянин человек

Внимание! Время в таблицах - всемирное. Для получения местного времени необходимо прибавить поправку, которая равна 10 ч.

Смотрите также архив погоды в соседних городах и на ближайших метеорологических станциях:

Погода в Агаякане (Якутия, Россия) (80 км)
Погода в Усть-Нере (Якутия, Россия) (82 км)
Погода в Оймяконе (Якутия, Россия) (110 км)
Погода в Восточной (Якутия, Россия) (142 км)
Погода в Делянкире (Якутия, Россия) (187 км)
Погода в Усть-Моме (Якутия, Россия) (275 км)
Погода в Теплом Ключе (Якутия, Россия) (286 км)
Погода в Томпо (Якутия, Россия) (293 км)
Погода в Иэме (Якутия, Россия) (317 км)
Погода в Сусумане (Магаданская область, Россия) (344 км)

Пояснения к столбцам:

Ветер - указаны скорость ветра в м/с - средняя за 10 мин, порывы в срок и между сроками (в фигурных скобках) и направление, откуда дует ветер: С - северный, СВ - северо-восточный, В - восточный, ЮВ - юго-восточный, Ю - южный, ЮЗ - юго-западный, З - западный, СЗ - северо-западный.
Видимость - горизонтальная дальность видимости в метрах или километрах. При видимости от 1 до 10 км при отсутствии осадков обычно наблюдается дымка, при ухудшении видимости до 1 км и менее - туман. В сухую погоду видимость может ухудшаться дымом, пылью или мглою.
Явления - указаны атмосферные явления, наблюдавшиеся в срок или в последний час перед сроком; фигурными скобками обозначены явления, наблюдавшиеся между сроками (за 1-3 часа до срока); квадратными скобками обозначены град или гололедные отложения с указанием их диаметра в мм.
Облачность - указаны через наклонную черту общая и нижняя облачность в баллах и высота нижней границы облаков в метрах; квадратными скобками обозначены формы облаков: Ci - перистые, Cs - перисто-слоистые, Cc - перисто-кучевые, Ac - высококучевые, As - высокослоистые, Sc - слоисто-кучевые, Ns - слоисто-дождевые, Cu - кучевые, Cb - кучево-дождевые. Подробнее классификацию облаков см. в Атласе облаков (PDF).
T - Температура воздуха - температура, измеренная на высоте 2 м над землей.
Td - Температура точки росы - температура, при понижении до которой содержащийся в воздухе водяной пар достигнет насыщения.
f - Относительная влажность воздуха - влажноcть воздуха, измеренная на высоте 2 м над землей.
Te - Эффективная температура - температура, которую ощущает одетый по сезону человек в тени. Характеристика душности погоды. При расчете учитывается влияние влажности воздуха и скорости ветра на теплоощущения человека.
Tes - Эффективная температура на солнце - температура, которую ощущает человек, с поправкой на солнечный нагрев. Характеристика знойности погоды. Зависит от высоты солнца над горизонтом, облачности и скорости ветра. Ночью, в пасмурную погоду, а также при ветре 12 м/с и более поправка равна нулю.
P - Атмосферное давление - приведенное к уровню моря атмосферное давление.
Po - Атмосферное давление - измеренное на уровне метеостанции атмосферное давление.
Tmin - Минимальная температура - минимум температуры воздуха на высоте 2 м над землей.
Tmax - Максимальная температура - максимум температуры воздуха на высоте 2 м над землей.
R - Количество осадков - Количество выпавших осадков за период времени, мм. При наведении курсора мыши на число - период времени, за который выпало указанное количество осадков.
R24 - Количество осадков - Количество выпавших осадков за 24 часа, мм.
S - Снежный покров - Высота снежного покрова, см. При наведении курсора мыши на число - состояние снежного покрова и степень покрытия местности в баллах.